Torna al catalogo

STRV 1C

AttivoScienzaGTO
NORAD 26610·PAYLOAD·🇬🇧 United Kingdom

Lanciato Nov 16, 2000 da Guiana Space Centre

Loading…

TLE

ObsoletoSource: Space-Track

Epoca: Sep 13, 2026, 14:58 UTC

1 26610U 00072C   26256.62392863 -.00000354  00000-0  35483-2 0  9992
2 26610   7.1388 341.8150 7338428 236.9626  31.5271  2.03546809191899

Traccia STRV 1C in tempo reale con AllMySat

Download on the App Store